This demonstration page uses our WeatherBlox Daily Observations layout. Learn more.

Left ArrowRight Arrow

39.12711, -84.51439

Hourly Observations for October 4, 2016

Temp ( °F °C ) Dew Point ( °F °C ) Humidity (%) Winds ( mph kmh ) Pressure ( in mb ) Visibility ( mi km ) Precip ( " mm )
12:48 am 00:48 Clear with Mist and Fog 54 12 54 12 100 100 Calm 30.09 1019 2 3 0.00 0.00
12:53 am 00:53 Clear with Mist and Fog 54 12.2 54 12.2 100 100 ENE 3 6 30.08 1019 1 2 0.00 0.00
1:09 am 01:09 Clear with Mist and Fog 54 12.2 54 12.2 100 100 Calm 30.09 1019 3 5 0.00 0.00
1:20 am 01:20 Clear with Mist and Fog 54 12 54 12 100 100 Calm 30.09 1019 3 4 0.00 0.00
1:29 am 01:29 Clear with Mist and Fog 54 12.2 54 12.2 100 100 Calm 30.09 1019 5 8 0.00 0.00
1:38 am 01:38 Clear with Mist and Fog 54 12 54 12 100 100 Calm 30.09 1019 2 3 0.00 0.00
1:49 am 01:49 Clear with Mist and Fog 52 11 52 11 100 100 Calm 30.09 1019 4 6 0.00 0.00
1:53 am 01:53 Clear with Mist and Fog 53 11.7 53 11.7 100 100 Calm 30.08 1019 5 8 0.00 0.00
2:04 am 02:04 Clear with Mist and Fog 54 12 54 12 100 100 Calm 30.09 1019 2 2 0.00 0.00
2:14 am 02:14 Clear with Mist and Fog 54 12 54 12 100 100 Calm 30.09 1019 1 1 0.00 0.00
2:21 am 02:21 Clear with Mist and Fog 53 11.7 53 11.7 100 100 Calm 30.09 1019 2 3 0.00 0.00
2:29 am 02:29 Clear with Mist and Fog 53 11.7 53 11.7 100 100 Calm 30.09 1019 3 5 0.00 0.00
2:37 am 02:37 Clear with Mist and Fog 53 11.7 53 11.7 100 100 Calm 30.09 1019 2 3 0.00 0.00
2:45 am 02:45 Clear with Mist and Fog 53 11.7 53 11.7 100 100 Calm 30.09 1019 5 8 0.00 0.00
2:53 am 02:53 Clear with Mist and Fog 52 11.1 52 11.1 100 100 Calm 30.09 1019 1 2 0.00 0.00
3:04 am 03:04 Clear with Mist and Fog 54 12 54 12 100 100 Calm 30.09 1019 3 5 0.00 0.00
3:28 am 03:28 Mostly Clear with Mist and Fog 54 12 54 12 100 100 Calm 30.09 1019 5 8 0.00 0.00
3:32 am 03:32 Mostly Clear with Mist and Fog 54 12 54 12 100 100 Calm 30.09 1019 2 3 0.00 0.00
3:35 am 03:35 Mostly Cloudy with Mist and Fog 53 11.7 53 11.7 100 100 Calm 30.09 1019 1 1 0.00 0.00
3:53 am 03:53 Mostly Cloudy with Fog 52 11.1 52 11.1 100 100 Calm 30.09 1019 1 1 0.00 0.00
4:09 am 04:09 Mostly Clear with Mist and Fog 52 11.1 52 11.1 100 100 Calm 30.09 1019 1 2 0.00 0.00
4:35 am 04:35 Clear with Mist and Fog 51 10.6 51 10.6 100 100 Calm 30.09 1019 3 5 0.00 0.00
4:46 am 04:46 Clear with Mist and Fog 52 11 52 11 100 100 Calm 30.09 1019 1 2 0.00 0.00
4:53 am 04:53 Clear with Mist and Fog 51 10.6 51 10.6 100 100 Calm 30.09 1019 1 2 0.00 0.00
4:58 am 04:58 Clear with Mist and Fog 52 11 52 11 100 100 Calm 30.09 1019 3 5 0.00 0.00
5:06 am 05:06 Clear with Mist and Fog 52 11 52 11 100 100 Calm 30.09 1019 2 3 0.00 0.00
5:16 am 05:16 Clear with Fog 50 10 50 10 100 100 Calm 30.12 1020 1 1 0.00 0.00
5:32 am 05:32 Mostly Clear with Mist and Fog 52 11 52 11 100 100 Calm 30.09 1019 2 3 0.00 0.00
5:39 am 05:39 Clear with Mist and Fog 52 11.1 52 11.1 100 100 NE 3 6 30.09 1019 5 8 0.00 0.00
5:53 am 05:53 Clear with Mist and Fog 51 10.6 51 10.6 100 100 ENE 3 6 30.09 1019 6 10 0.00 0.00
6:53 am 06:53 Mostly Cloudy 53 11.7 53 11.7 100 100 Calm 30.11 1020 10 16 0.00 0.00
7:53 am 07:53 Mostly Cloudy 56 13.3 55 12.8 97 97 NNE 3 6 30.11 1020 10 16 0.00 0.00
8:53 am 08:53 Sunny 59 15 56 13.3 90 90 NNE 5 7 30.12 1020 10 16 0.00 0.00
9:53 am 09:53 Mostly Cloudy 62 16.7 58 14.4 86 86 VRB 5 7 30.13 1020 10 16 0.00 0.00
10:53 am 10:53 Mostly Cloudy 67 19.4 60 15.6 79 79 Calm 30.13 1020 10 16 0.00 0.00
11:53 am 11:53 Mostly Cloudy 71 21.7 61 16.1 71 71 W 3 6 30.11 1020 10 16 0.00 0.00
12:53 pm 12:53 Partly Cloudy 75 23.9 60 15.6 60 60 NE 5 7 30.09 1019 10 16 0.00 0.00
1:53 pm 13:53 Sunny 78 25.6 60 15.6 54 54 E 6 9 30.08 1019 10 16 0.00 0.00
2:53 pm 14:53 Mostly Sunny 79 26.1 60 15.6 52 52 ESE 6 9 30.06 1018 10 16 0.00 0.00
3:53 pm 15:53 Sunny 79 26.1 57 13.9 47 47 ESE 8 13 30.05 1018 10 16 0.00 0.00
4:53 pm 16:53 Partly Cloudy 79 26.1 59 15 50 50 ESE 7 11 30.04 1017 10 16 0.00 0.00
5:53 pm 17:53 Sunny 78 25.6 60 15.6 54 54 E 7 11 30.04 1017 10 16 0.00 0.00
6:53 pm 18:53 Sunny 72 22.2 64 17.8 76 76 ESE 5 7 30.04 1017 10 16 0.00 0.00
7:53 pm 19:53 Clear 65 18.3 63 17.2 93 93 Calm 30.05 1018 10 16 0.00 0.00
8:53 pm 20:53 Clear 64 17.8 63 17.2 96 96 Calm 30.06 1018 10 16 0.00 0.00
9:53 pm 21:53 Clear 62 16.7 62 16.7 100 100 Calm 30.07 1018 9 14 0.00 0.00
10:53 pm 22:53 Clear 61 16.1 61 16.1 100 100 Calm 30.07 1018 9 14 0.00 0.00
11:53 pm 23:53 Clear with Mist and Fog 61 16.1 61 16.1 100 100 Calm 30.07 1018 4 6 0.00 0.00

Powered by AerisWeather